LEMUR 4.7

Last updated on Tue Nov 24 2020 00:02:06 GMT+0000 (Coordinated Universal Time)

1 46926U 98067RW 20328.33786530 .00027876 00000-0 48476-3 0 9999 2 46926 51.6430 280.8439 0002912 71.2235 288.9069 15.50574202 2821
UTC large
Height (km)
Speed (km/s)
/
Latitude / Longitude
Inclination (degrees)
Orbital Period (minutes)
Azimuth
Elevation
Range (km)
Doppler Factor

Next 0 passes for location: London (51.5072 / 0.1276)

Sorry there are no passes over London.